Time,TemperatureF,DewpointF,PressureIn,WindDirection,WindDirectionDegrees,WindSpeedMPH,WindSpeedGustMPH,Humidity,HourlyPrecipIn,Conditions,Clouds,dailyrainin,SoftwareType,DateUTC
2013-02-21 00:00:00,23.6,16.5,29.91,ENE,66,5.0,24.0,74,0.00,,,0.00,Wunderground v.1.15,2013-02-21 06:00:00,
2013-02-21 00:10:00,23.5,16.1,29.91,NE,43,5.0,24.0,73,0.00,,,0.00,Wunderground v.1.15,2013-02-21 06:10:00,
2013-02-21 00:20:00,23.4,16.3,29.91,NNE,23,5.0,24.0,74,0.00,,,0.00,Wunderground v.1.15,2013-02-21 06:20:00,
2013-02-21 00:30:00,23.3,15.9,29.90,NE,40,7.0,7.0,73,0.00,,,0.00,Wunderground v.1.15,2013-02-21 06:30:00,
2013-02-21 00:35:00,23.3,16.2,29.90,NNW,342,7.0,24.0,74,0.00,,,0.00,Wunderground v.1.15,2013-02-21 06:35:00,
2013-02-21 00:40:00,23.2,16.1,29.89,NE,41,6.0,24.0,74,0.00,,,0.00,Wunderground v.1.15,2013-02-21 06:40:00,
2013-02-21 00:50:00,23.0,15.6,29.89,NE,45,7.0,24.0,73,0.00,,,0.00,Wunderground v.1.15,2013-02-21 06:50:00,
2013-02-21 01:00:00,23.1,16.7,29.90,ENE,72,5.0,24.0,76,0.00,,,0.00,Wunderground v.1.15,2013-02-21 07:00:00,
2013-02-21 01:10:00,23.1,16.4,29.90,NW,325,5.0,5.0,75,0.00,,,0.00,Wunderground v.1.15,2013-02-21 07:10:00,
2013-02-21 01:20:00,23.0,15.9,29.90,NE,40,5.0,24.0,74,0.00,,,0.00,Wunderground v.1.15,2013-02-21 07:20:00,
2013-02-21 01:30:00,23.1,16.4,29.90,ENE,68,5.0,24.0,75,0.00,,,0.00,Wunderground v.1.15,2013-02-21 07:30:00,
2013-02-21 01:40:00,23.2,16.1,29.89,NE,51,6.0,24.0,74,0.00,,,0.00,Wunderground v.1.15,2013-02-21 07:40:00,
2013-02-21 01:45:00,23.1,16.4,29.89,ENE,67,5.0,24.0,75,0.00,,,0.00,Wunderground v.1.15,2013-02-21 07:45:00,
2013-02-21 01:50:00,23.1,16.0,29.90,NNE,31,4.0,4.0,74,0.00,,,0.00,Wunderground v.1.15,2013-02-21 07:50:00,
2013-02-21 02:00:00,23.1,16.0,29.90,NE,44,3.0,24.0,74,0.00,,,0.00,Wunderground v.1.15,2013-02-21 08:00:00,
2013-02-21 02:10:00,23.2,16.4,29.89,ENE,75,4.0,4.0,75,0.00,,,0.00,Wunderground v.1.15,2013-02-21 08:10:00,
2013-02-21 02:20:00,23.1,15.7,29.89,ENE,65,4.0,24.0,73,0.00,,,0.00,Wunderground v.1.15,2013-02-21 08:20:00,
2013-02-21 02:30:00,23.1,16.0,29.89,NE,49,4.0,24.0,74,0.00,,,0.00,Wunderground v.1.15,2013-02-21 08:30:00,
2013-02-21 02:40:00,23.0,15.6,29.90,NNE,29,5.0,24.0,73,0.00,,,0.00,Wunderground v.1.15,2013-02-21 08:40:00,
2013-02-21 02:50:00,22.9,15.5,29.89,NE,46,5.0,24.0,73,0.00,,,0.00,Wunderground v.1.15,2013-02-21 08:50:00,
2013-02-21 03:00:00,22.9,15.8,29.90,East,94,4.0,4.0,74,0.00,,,0.00,Wunderground v.1.15,2013-02-21 09:00:00,
2013-02-21 03:10:00,22.8,15.8,29.88,NE,55,5.0,5.0,74,0.00,,,0.00,Wunderground v.1.15,2013-02-21 09:10:00,
2013-02-21 03:20:00,22.7,15.7,29.89,NE,52,5.0,5.0,74,0.00,,,0.00,Wunderground v.1.15,2013-02-21 09:20:00,
2013-02-21 03:30:00,22.7,15.7,29.88,NE,37,3.0,24.0,74,0.00,,,0.00,Wunderground v.1.15,2013-02-21 09:30:00,
2013-02-21 03:40:00,22.8,16.1,29.88,North,354,5.0,24.0,75,0.00,,,0.00,Wunderground v.1.15,2013-02-21 09:40:00,
2013-02-21 03:45:00,22.7,15.7,29.88,NE,44,6.0,24.0,74,0.00,,,0.00,Wunderground v.1.15,2013-02-21 09:45:00,
2013-02-21 03:55:00,22.7,15.7,29.89,NE,41,5.0,7.0,74,0.00,,,0.00,Wunderground v.1.15,2013-02-21 09:55:00,
2013-02-21 04:05:00,22.7,15.7,29.88,East,84,5.0,24.0,74,0.00,,,0.00,Wunderground v.1.15,2013-02-21 10:05:00,
2013-02-21 04:15:00,22.8,16.1,29.87,NE,49,6.0,24.0,75,0.00,,,0.00,Wunderground v.1.15,2013-02-21 10:15:00,
2013-02-21 04:25:00,22.7,16.0,29.88,NE,39,6.0,24.0,75,0.00,,,0.00,Wunderground v.1.15,2013-02-21 10:25:00,
2013-02-21 04:30:00,22.7,15.7,29.88,ENE,72,5.0,5.0,74,0.00,,,0.00,Wunderground v.1.15,2013-02-21 10:30:00,
2013-02-21 04:40:00,22.8,15.4,29.89,NE,53,4.0,4.0,73,0.00,,,0.00,Wunderground v.1.15,2013-02-21 10:40:00,
2013-02-21 04:50:00,22.9,15.5,29.89,ENE,66,4.0,4.0,73,0.00,,,0.00,Wunderground v.1.15,2013-02-21 10:50:00,
2013-02-21 05:00:00,23.0,15.6,29.89,East,79,3.0,24.0,73,0.00,,,0.00,Wunderground v.1.15,2013-02-21 11:00:00,
2013-02-21 05:10:00,23.0,15.9,29.88,NE,56,3.0,3.0,74,0.00,,,0.00,Wunderground v.1.15,2013-02-21 11:10:00,
2013-02-21 05:20:00,23.2,16.1,29.88,NE,53,3.0,24.0,74,0.00,,,0.00,Wunderground v.1.15,2013-02-21 11:20:00,
2013-02-21 05:30:00,23.2,15.8,29.86,NE,48,6.0,6.0,73,0.00,,,0.00,Wunderground v.1.15,2013-02-21 11:30:00,
2013-02-21 05:40:00,23.3,16.5,29.85,ENE,68,4.0,4.0,75,0.00,,,0.00,Wunderground v.1.15,2013-02-21 11:40:00,
2013-02-21 05:45:00,23.1,16.0,29.84,ENE,78,5.0,5.0,74,0.00,,,0.00,Wunderground v.1.15,2013-02-21 11:45:00,
2013-02-21 05:55:00,23.0,15.6,29.85,NE,55,6.0,24.0,73,0.00,,,0.00,Wunderground v.1.15,2013-02-21 11:55:00,
2013-02-21 06:05:00,22.9,15.5,29.84,East,83,6.0,24.0,73,0.00,,,0.00,Wunderground v.1.15,2013-02-21 12:05:00,
2013-02-21 06:15:00,23.1,16.0,29.84,NNE,26,4.0,24.0,74,0.00,,,0.00,Wunderground v.1.15,2013-02-21 12:15:00,
2013-02-21 06:20:00,23.0,15.6,29.85,ENE,74,4.0,4.0,73,0.00,,,0.00,Wunderground v.1.15,2013-02-21 12:20:00,
2013-02-21 06:30:00,23.1,15.7,29.84,ENE,75,4.0,24.0,73,0.00,,,0.00,Wunderground v.1.15,2013-02-21 12:30:00,
2013-02-21 06:40:00,23.1,16.0,29.84,SE,127,4.0,4.0,74,0.00,,,0.00,Wunderground v.1.15,2013-02-21 12:40:00,
2013-02-21 06:50:00,23.2,16.1,29.83,ENE,66,4.0,24.0,74,0.00,,,0.00,Wunderground v.1.15,2013-02-21 12:50:00,
2013-02-21 07:00:00,23.3,15.9,29.82,NE,52,4.0,4.0,73,0.00,,,0.00,Wunderground v.1.15,2013-02-21 13:00:00,
2013-02-21 07:10:00,23.3,16.2,29.83,NE,44,5.0,24.0,74,0.00,,,0.00,Wunderground v.1.15,2013-02-21 13:10:00,
2013-02-21 07:20:00,23.4,15.7,29.84,NE,56,6.0,24.0,72,0.00,,,0.00,Wunderground v.1.15,2013-02-21 13:20:00,
2013-02-21 07:30:00,23.7,15.7,29.83,ENE,69,7.0,7.0,71,0.00,,,0.00,Wunderground v.1.15,2013-02-21 13:30:00,
2013-02-21 07:40:00,24.2,16.1,29.83,East,84,6.0,6.0,71,0.00,,,0.00,Wunderground v.1.15,2013-02-21 13:40:00,
2013-02-21 07:50:00,24.3,15.9,29.82,ENE,70,7.0,7.0,70,0.00,,,0.00,Wunderground v.1.15,2013-02-21 13:50:00,
2013-02-21 08:00:00,24.6,15.9,29.82,North,356,8.0,24.0,69,0.00,,,0.00,Wunderground v.1.15,2013-02-21 14:00:00,
2013-02-21 08:10:00,24.8,16.1,29.84,East,96,5.0,24.0,69,0.00,,,0.00,Wunderground v.1.15,2013-02-21 14:10:00,
2013-02-21 08:20:00,25.0,15.9,29.83,ENE,71,5.0,24.0,68,0.00,,,0.00,Wunderground v.1.15,2013-02-21 14:20:00,
2013-02-21 08:30:00,25.3,16.2,29.82,East,95,6.0,24.0,68,0.00,,,0.00,Wunderground v.1.15,2013-02-21 14:30:00,
2013-02-21 08:40:00,25.8,16.7,29.82,East,81,6.0,6.0,68,0.00,,,0.00,Wunderground v.1.15,2013-02-21 14:40:00,
2013-02-21 08:50:00,26.4,16.2,29.82,ENE,57,4.0,24.0,65,0.00,,,0.00,Wunderground v.1.15,2013-02-21 14:50:00,
2013-02-21 09:00:00,26.7,16.5,29.81,ENE,65,6.0,24.0,65,0.00,,,0.00,Wunderground v.1.15,2013-02-21 15:00:00,
2013-02-21 09:10:00,27.3,16.7,29.80,East,97,7.0,7.0,64,0.00,,,0.00,Wunderground v.1.15,2013-02-21 15:10:00,
2013-02-21 09:20:00,27.8,16.8,29.81,ESE,107,6.0,6.0,63,0.00,,,0.00,Wunderground v.1.15,2013-02-21 15:20:00,
2013-02-21 09:30:00,28.0,16.3,29.79,NE,44,6.0,6.0,61,0.00,,,0.00,Wunderground v.1.15,2013-02-21 15:30:00,
2013-02-21 09:35:00,28.1,16.4,29.79,East,82,6.0,24.0,61,0.00,,,0.00,Wunderground v.1.15,2013-02-21 15:35:00,
2013-02-21 09:45:00,28.5,16.7,29.77,ENE,60,6.0,24.0,61,0.00,,,0.00,Wunderground v.1.15,2013-02-21 15:45:00,
2013-02-21 09:55:00,29.0,17.2,29.79,NE,40,4.0,9.0,61,0.00,,,0.00,Wunderground v.1.15,2013-02-21 15:55:00,
2013-02-21 10:05:00,29.0,17.2,29.77,East,80,7.0,24.0,61,0.00,,,0.00,Wunderground v.1.15,2013-02-21 16:05:00,
2013-02-21 10:10:00,29.3,17.9,29.76,East,86,6.0,6.0,62,0.00,,,0.00,Wunderground v.1.15,2013-02-21 16:10:00,
2013-02-21 10:20:00,29.7,17.5,29.75,East,90,6.0,6.0,60,0.00,,,0.00,Wunderground v.1.15,2013-02-21 16:20:00,
2013-02-21 10:30:00,29.9,17.3,29.78,East,89,6.0,24.0,59,0.00,,,0.00,Wunderground v.1.15,2013-02-21 16:30:00,
2013-02-21 10:40:00,30.0,17.8,29.78,East,86,5.0,5.0,60,0.00,,,0.00,Wunderground v.1.15,2013-02-21 16:40:00,
2013-02-21 10:50:00,30.1,17.9,29.78,NE,54,6.0,6.0,60,0.00,,,0.00,Wunderground v.1.15,2013-02-21 16:50:00,
2013-02-21 11:00:00,30.3,17.3,29.77,ESE,105,6.0,6.0,58,0.00,,,0.00,Wunderground v.1.15,2013-02-21 17:00:00,
2013-02-21 11:10:00,30.7,17.7,29.75,North,8,5.0,24.0,58,0.00,,,0.00,Wunderground v.1.15,2013-02-21 17:10:00,
2013-02-21 11:20:00,30.8,18.1,29.74,ENE,70,6.0,24.0,59,0.00,,,0.00,Wunderground v.1.15,2013-02-21 17:20:00,
2013-02-21 11:30:00,30.7,19.2,29.71,ENE,62,6.0,24.0,62,0.00,,,0.00,Wunderground v.1.15,2013-02-21 17:30:00,
2013-02-21 11:40:00,30.6,18.7,29.69,ESE,108,7.0,24.0,61,0.00,,,0.00,Wunderground v.1.15,2013-02-21 17:40:00,
2013-02-21 11:50:00,30.8,18.5,29.68,NE,41,8.0,24.0,60,0.00,,,0.00,Wunderground v.1.15,2013-02-21 17:50:00,
2013-02-21 12:00:00,31.1,19.2,29.68,East,92,5.0,5.0,61,0.00,,,0.00,Wunderground v.1.15,2013-02-21 18:00:00,
2013-02-21 12:10:00,31.2,18.5,29.67,NE,37,7.0,24.0,59,0.00,,,0.00,Wunderground v.1.15,2013-02-21 18:10:00,
2013-02-21 12:20:00,31.3,18.6,29.65,NE,48,7.0,24.0,59,0.00,,,0.00,Wunderground v.1.15,2013-02-21 18:20:00,
2013-02-21 12:30:00,31.4,18.7,29.61,ENE,60,9.0,9.0,59,0.00,,,0.00,Wunderground v.1.15,2013-02-21 18:30:00,
2013-02-21 12:40:00,31.5,18.8,29.59,NE,54,9.0,9.0,59,0.00,,,0.00,Wunderground v.1.15,2013-02-21 18:40:00,
2013-02-21 12:50:00,31.7,19.4,29.59,NE,48,8.0,8.0,60,0.00,,,0.00,Wunderground v.1.15,2013-02-21 18:50:00,
2013-02-21 13:00:00,31.9,18.8,29.58,ESE,105,8.0,8.0,58,0.00,,,0.00,Wunderground v.1.15,2013-02-21 19:00:00,
2013-02-21 13:10:00,32.1,19.0,29.58,NE,53,7.0,7.0,58,0.00,,,0.00,Wunderground v.1.15,2013-02-21 19:10:00,
2013-02-21 13:20:00,32.2,19.9,29.59,ENE,77,6.0,6.0,60,0.00,,,0.00,Wunderground v.1.15,2013-02-21 19:20:00,
2013-02-21 13:30:00,32.2,20.6,29.59,NE,51,5.0,24.0,62,0.00,,,0.00,Wunderground v.1.15,2013-02-21 19:30:00,
2013-02-21 13:40:00,31.9,21.5,29.60,SE,141,4.0,4.0,65,0.00,,,0.00,Wunderground v.1.15,2013-02-21 19:40:00,
2013-02-21 13:50:00,31.8,22.1,29.61,ESE,122,4.0,4.0,67,0.00,,,0.01,Wunderground v.1.15,2013-02-21 19:50:00,
2013-02-21 13:55:00,31.8,22.4,29.63,ESE,115,3.0,24.0,68,0.00,,,0.01,Wunderground v.1.15,2013-02-21 19:55:00,
2013-02-21 14:05:00,31.7,24.4,29.65,NE,53,1.0,6.0,74,0.19,,,0.04,Wunderground v.1.15,2013-02-21 20:05:00,
2013-02-21 14:15:00,31.4,24.7,29.65,NE,50,2.0,24.0,76,0.23,,,0.07,Wunderground v.1.15,2013-02-21 20:15:00,
2013-02-21 14:25:00,30.9,24.5,29.67,NW,309,2.0,24.0,77,0.24,,,0.11,Wunderground v.1.15,2013-02-21 20:25:00,
2013-02-21 14:30:00,30.8,24.7,29.67,North,356,2.0,24.0,78,0.18,,,0.12,Wunderground v.1.15,2013-02-21 20:30:00,
2013-02-21 14:40:00,30.4,25.6,29.66,NNE,33,5.0,24.0,82,0.19,,,0.15,Wunderground v.1.15,2013-02-21 20:40:00,
2013-02-21 14:50:00,29.9,25.9,29.65,NE,37,5.0,5.0,85,0.22,,,0.18,Wunderground v.1.15,2013-02-21 20:50:00,
2013-02-21 15:00:00,29.4,25.7,29.64,NE,34,6.0,6.0,86,0.22,,,0.22,Wunderground v.1.15,2013-02-21 21:00:00,
2013-02-21 15:10:00,29.1,26.0,29.63,NE,34,9.0,24.0,88,0.12,,,0.24,Wunderground v.1.15,2013-02-21 21:10:00,
2013-02-21 15:20:00,29.1,26.0,29.62,NNE,16,6.0,6.0,88,0.09,,,0.26,Wunderground v.1.15,2013-02-21 21:20:00,
2013-02-21 15:30:00,29.1,26.0,29.62,NE,35,8.0,24.0,88,0.24,,,0.29,Wunderground v.1.15,2013-02-21 21:30:00,
2013-02-21 15:40:00,29.0,25.9,29.62,NE,40,8.0,8.0,88,0.25,,,0.33,Wunderground v.1.15,2013-02-21 21:40:00,
2013-02-21 15:50:00,28.9,26.1,29.61,ENE,65,8.0,8.0,89,0.37,,,0.39,Wunderground v.1.15,2013-02-21 21:50:00,
2013-02-21 16:00:00,28.8,26.2,29.60,NE,49,9.0,24.0,90,0.41,,,0.44,Wunderground v.1.15,2013-02-21 22:00:00,
2013-02-21 16:10:00,28.8,26.2,29.61,NW,323,8.0,8.0,90,0.32,,,0.50,Wunderground v.1.15,2013-02-21 22:10:00,
2013-02-21 16:20:00,28.8,26.5,29.56,NE,41,9.0,24.0,91,0.42,,,0.56,Wunderground v.1.15,2013-02-21 22:20:00,
2013-02-21 16:25:00,28.7,26.4,29.57,ESE,121,9.0,24.0,91,0.34,,,0.59,Wunderground v.1.15,2013-02-21 22:25:00,
2013-02-21 16:35:00,28.8,26.5,29.57,NNE,15,9.0,24.0,91,0.21,,,0.63,Wunderground v.1.15,2013-02-21 22:35:00,
2013-02-21 16:45:00,28.9,26.6,29.55,East,83,6.0,24.0,91,0.10,,,0.64,Wunderground v.1.15,2013-02-21 22:45:00,
2013-02-21 16:55:00,29.0,26.7,29.53,ENE,65,8.0,24.0,91,0.14,,,0.66,Wunderground v.1.15,2013-02-21 22:55:00,
2013-02-21 17:05:00,29.0,26.7,29.51,East,82,8.0,24.0,91,0.10,,,0.67,Wunderground v.1.15,2013-02-21 23:05:00,
2013-02-21 17:15:00,29.2,26.9,29.53,NE,48,7.0,9.0,91,0.47,,,0.70,Wunderground v.1.15,2013-02-21 23:15:00,
2013-02-21 17:25:00,29.2,27.2,29.49,NE,49,5.0,8.0,92,0.18,,,0.75,Wunderground v.1.15,2013-02-21 23:25:00,
2013-02-21 17:35:00,29.4,27.4,29.51,East,84,4.0,24.0,92,0.05,,,0.75,Wunderground v.1.15,2013-02-21 23:35:00,
2013-02-21 17:45:00,29.6,27.3,29.51,ESE,110,6.0,6.0,91,0.05,,,0.76,Wunderground v.1.15,2013-02-21 23:45:00,
2013-02-21 17:55:00,29.9,27.6,29.52,SSE,163,4.0,24.0,91,0.00,,,0.76,Wunderground v.1.15,2013-02-21 23:55:00,
2013-02-21 18:05:00,29.9,27.9,29.52,ESE,113,4.0,24.0,92,0.16,,,0.80,Wunderground v.1.15,2013-02-22 00:05:00,
2013-02-21 18:15:00,29.9,27.9,29.53,East,82,5.0,11.0,92,0.35,,,0.87,Wunderground v.1.15,2013-02-22 00:15:00,
2013-02-21 18:25:00,30.0,28.0,29.53,East,101,6.0,24.0,92,0.10,,,0.88,Wunderground v.1.15,2013-02-22 00:25:00,
2013-02-21 18:35:00,29.9,27.9,29.52,ESE,123,4.0,24.0,92,0.18,,,0.90,Wunderground v.1.15,2013-02-22 00:35:00,
2013-02-21 18:45:00,30.0,28.2,29.52,East,86,4.0,24.0,93,0.06,,,0.90,Wunderground v.1.15,2013-02-22 00:45:00,
2013-02-21 18:55:00,30.0,28.2,29.52,ENE,76,4.0,24.0,93,0.04,,,0.91,Wunderground v.1.15,2013-02-22 00:55:00,
2013-02-21 19:00:00,30.1,28.3,29.53,ENE,62,3.0,24.0,93,0.04,,,0.91,Wunderground v.1.15,2013-02-22 01:00:00,
2013-02-21 19:05:00,30.2,28.4,29.53,ENE,57,3.0,24.0,93,0.04,,,0.92,Wunderground v.1.15,2013-02-22 01:05:00,
2013-02-21 19:15:00,30.2,28.4,29.51,ENE,70,3.0,24.0,93,0.04,,,0.92,Wunderground v.1.15,2013-02-22 01:15:00,
2013-02-21 19:25:00,30.4,28.6,29.51,ESE,118,4.0,24.0,93,0.00,,,0.93,Wunderground v.1.15,2013-02-22 01:25:00,
2013-02-21 19:35:00,30.6,28.8,29.51,East,82,5.0,24.0,93,0.00,,,0.93,Wunderground v.1.15,2013-02-22 01:35:00,
2013-02-21 19:40:00,30.6,28.8,29.51,ENE,78,4.0,24.0,93,0.05,,,0.94,Wunderground v.1.15,2013-02-22 01:40:00,
2013-02-21 19:50:00,30.9,29.4,29.50,ESE,108,4.0,24.0,94,0.13,,,0.98,Wunderground v.1.15,2013-02-22 01:50:00,
2013-02-21 20:00:00,30.7,29.2,29.50,ESE,108,5.0,5.0,94,0.08,,,0.99,Wunderground v.1.15,2013-02-22 02:00:00,
2013-02-21 20:10:00,30.7,28.9,29.53,North,354,5.0,24.0,93,0.00,,,0.99,Wunderground v.1.15,2013-02-22 02:10:00,
2013-02-21 20:15:00,30.7,28.9,29.52,ENE,60,4.0,24.0,93,0.00,,,0.99,Wunderground v.1.15,2013-02-22 02:15:00,
2013-02-21 20:20:00,30.7,28.9,29.51,NE,37,3.0,24.0,93,0.00,,,0.99,Wunderground v.1.15,2013-02-22 02:20:00,
2013-02-21 20:30:00,30.7,28.9,29.52,NNW,345,5.0,5.0,93,0.00,,,0.99,Wunderground v.1.15,2013-02-22 02:30:00,
2013-02-21 20:40:00,30.8,29.3,29.51,East,94,3.0,24.0,94,0.55,,,1.05,Wunderground v.1.15,2013-02-22 02:40:00,
2013-02-21 20:50:00,30.8,29.3,29.52,East,89,3.0,24.0,94,0.07,,,1.07,Wunderground v.1.15,2013-02-22 02:50:00,
2013-02-21 21:00:00,30.9,29.4,29.50,ENE,71,3.0,24.0,94,0.15,,,1.11,Wunderground v.1.15,2013-02-22 03:00:00,
2013-02-21 21:05:00,30.9,29.4,29.50,NNW,347,2.0,24.0,94,0.06,,,1.11,Wunderground v.1.15,2013-02-22 03:05:00,
2013-02-21 21:15:00,31.0,29.5,29.50,ESE,104,3.0,24.0,94,0.00,,,1.11,Wunderground v.1.15,2013-02-22 03:15:00,
2013-02-21 21:25:00,31.1,29.8,29.49,ENE,57,3.0,24.0,95,0.00,,,1.11,Wunderground v.1.15,2013-02-22 03:25:00,
2013-02-21 21:35:00,31.3,30.0,29.48,East,89,3.0,24.0,95,0.00,,,1.11,Wunderground v.1.15,2013-02-22 03:35:00,
2013-02-21 21:45:00,31.3,30.0,29.47,ENE,63,4.0,6.0,95,0.00,,,1.11,Wunderground v.1.15,2013-02-22 03:45:00,
2013-02-21 21:55:00,31.6,30.3,29.45,ENE,61,4.0,24.0,95,0.00,,,1.11,Wunderground v.1.15,2013-02-22 03:55:00,
2013-02-21 22:05:00,32.1,30.8,29.47,ENE,75,3.0,24.0,95,0.00,,,1.11,Wunderground v.1.15,2013-02-22 04:05:00,
2013-02-21 22:10:00,32.4,31.4,29.47,ESE,120,2.0,2.0,96,0.00,,,1.11,Wunderground v.1.15,2013-02-22 04:10:00,
2013-02-21 22:20:00,32.8,31.8,29.47,East,82,2.0,24.0,96,0.00,,,1.11,Wunderground v.1.15,2013-02-22 04:20:00,
2013-02-21 22:30:00,33.0,32.0,29.46,ESE,117,2.0,24.0,96,0.00,,,1.11,Wunderground v.1.15,2013-02-22 04:30:00,
2013-02-21 22:40:00,33.3,32.0,29.47,SE,127,2.0,2.0,95,0.00,,,1.11,Wunderground v.1.15,2013-02-22 04:40:00,
2013-02-21 22:50:00,33.5,32.2,29.47,SSW,210,2.0,2.0,95,0.00,,,1.11,Wunderground v.1.15,2013-02-22 04:50:00,
2013-02-21 23:00:00,33.6,32.3,29.47,East,101,2.0,24.0,95,0.00,,,1.11,Wunderground v.1.15,2013-02-22 05:00:00,
2013-02-21 23:05:00,33.7,32.4,29.46,SE,135,2.0,24.0,95,0.00,,,1.11,Wunderground v.1.15,2013-02-22 05:05:00,
2013-02-21 23:10:00,33.8,32.5,29.46,SE,131,2.0,24.0,95,0.00,,,1.11,Wunderground v.1.15,2013-02-22 05:10:00,
2013-02-21 23:15:00,33.9,32.6,29.46,ESE,104,2.0,24.0,95,0.00,,,1.11,Wunderground v.1.15,2013-02-22 05:15:00,
2013-02-21 23:25:00,34.1,32.8,29.45,East,96,3.0,24.0,95,0.00,,,1.11,Wunderground v.1.15,2013-02-22 05:25:00,
2013-02-21 23:30:00,34.2,32.9,29.45,ESE,122,3.0,3.0,95,0.00,,,1.11,Wunderground v.1.15,2013-02-22 05:30:00,
2013-02-21 23:40:00,34.3,33.0,29.46,ESE,103,2.0,2.0,95,0.00,,,1.11,Wunderground v.1.15,2013-02-22 05:40:00,
2013-02-21 23:50:00,34.3,33.0,29.45,ESE,110,2.0,24.0,95,0.00,,,1.11,Wunderground v.1.15,2013-02-22 05:50:00,